TimePDT,TemperatureF,Dew PointF,Humidity,Sea Level PressureIn,VisibilityMPH,Wind Direction,Wind SpeedMPH,Gust SpeedMPH,PrecipitationIn,Events,Conditions,WindDirDegrees,DateUTC
12:15 AM,55.4,46.4,72,30.32,10.0,Calm,Calm,-,N/A,,Mostly Cloudy,0,2013-08-20 07:15:00
12:35 AM,55.4,44.6,67,30.31,10.0,Calm,Calm,-,N/A,,Overcast,0,2013-08-20 07:35:00
12:55 AM,53.6,44.6,72,30.31,10.0,Calm,Calm,-,N/A,,Overcast,0,2013-08-20 07:55:00
1:15 AM,50.0,44.6,82,30.31,10.0,Calm,Calm,-,N/A,,Overcast,0,2013-08-20 08:15:00
1:35 AM,50.0,44.6,82,30.31,10.0,Calm,Calm,-,N/A,,Mostly Cloudy,0,2013-08-20 08:35:00
1:55 AM,50.0,42.8,76,30.31,10.0,NNW,3.5,-,N/A,,Scattered Clouds,330,2013-08-20 08:55:00
2:15 AM,48.2,42.8,82,30.31,10.0,Calm,Calm,-,N/A,,Clear,0,2013-08-20 09:15:00
2:35 AM,48.2,42.8,82,30.30,10.0,NW,4.6,-,N/A,,Clear,320,2013-08-20 09:35:00
2:55 AM,48.2,42.8,82,30.30,10.0,Calm,Calm,-,N/A,,Clear,0,2013-08-20 09:55:00
3:15 AM,46.4,41.0,81,30.30,10.0,Calm,Calm,-,N/A,,Clear,0,2013-08-20 10:15:00
3:35 AM,46.4,41.0,81,30.29,10.0,Calm,Calm,-,N/A,,Clear,0,2013-08-20 10:35:00
3:55 AM,46.4,41.0,81,30.29,10.0,North,3.5,-,N/A,,Clear,350,2013-08-20 10:55:00
4:15 AM,44.6,41.0,87,30.28,10.0,Calm,Calm,-,N/A,,Clear,0,2013-08-20 11:15:00
4:35 AM,44.6,41.0,87,30.28,10.0,Calm,Calm,-,N/A,,Clear,0,2013-08-20 11:35:00
4:55 AM,46.4,41.0,81,30.29,10.0,Calm,Calm,-,N/A,,Clear,0,2013-08-20 11:55:00
5:15 AM,42.8,39.2,87,30.29,10.0,North,3.5,-,N/A,,Clear,10,2013-08-20 12:15:00
5:35 AM,42.8,39.2,87,30.29,10.0,NNW,3.5,-,N/A,,Clear,330,2013-08-20 12:35:00
5:55 AM,44.6,41.0,87,30.29,10.0,West,4.6,-,N/A,,Clear,260,2013-08-20 12:55:00
6:15 AM,44.6,41.0,87,30.29,10.0,Calm,Calm,-,N/A,,Clear,0,2013-08-20 13:15:00
6:35 AM,44.6,39.2,81,30.30,10.0,Calm,Calm,-,N/A,,Clear,0,2013-08-20 13:35:00
6:55 AM,46.4,41.0,81,30.30,10.0,Calm,Calm,-,N/A,,Clear,0,2013-08-20 13:55:00
7:15 AM,48.2,41.0,76,30.30,10.0,Calm,Calm,-,N/A,,Clear,0,2013-08-20 14:15:00
7:35 AM,50.0,42.8,76,30.31,10.0,Calm,Calm,-,N/A,,Clear,0,2013-08-20 14:35:00
7:55 AM,53.6,42.8,67,30.30,10.0,North,3.5,-,N/A,,Clear,360,2013-08-20 14:55:00
8:15 AM,55.4,42.8,63,30.31,10.0,Calm,Calm,-,N/A,,Clear,0,2013-08-20 15:15:00
8:35 AM,59.0,42.8,55,30.31,10.0,Calm,Calm,-,N/A,,Clear,0,2013-08-20 15:35:00
8:55 AM,62.6,42.8,48,30.30,10.0,Calm,Calm,-,N/A,,Clear,0,2013-08-20 15:55:00
9:15 AM,66.2,41.0,40,30.30,10.0,Calm,Calm,-,N/A,,Clear,0,2013-08-20 16:15:00
9:35 AM,68.0,44.6,43,30.30,10.0,SSE,4.6,-,N/A,,Clear,150,2013-08-20 16:35:00
9:55 AM,71.6,42.8,35,30.30,10.0,SE,5.8,-,N/A,,Clear,130,2013-08-20 16:55:00
10:15 AM,73.4,42.8,33,30.30,10.0,ESE,6.9,-,N/A,,Clear,120,2013-08-20 17:15:00
10:35 AM,75.2,41.0,29,30.29,10.0,ESE,8.1,-,N/A,,Clear,120,2013-08-20 17:35:00
10:55 AM,75.2,39.2,27,30.29,10.0,ESE,6.9,-,N/A,,Clear,120,2013-08-20 17:55:00
11:15 AM,77.0,39.2,26,30.29,10.0,East,6.9,-,N/A,,Clear,100,2013-08-20 18:15:00
11:35 AM,78.8,39.2,24,30.28,10.0,SE,5.8,9.2,N/A,,Clear,130,2013-08-20 18:35:00
11:55 AM,78.8,37.4,23,30.28,10.0,East,10.4,17.3,N/A,,Clear,80,2013-08-20 18:55:00
12:15 PM,80.6,37.4,21,30.27,10.0,East,10.4,16.1,N/A,,Clear,90,2013-08-20 19:15:00
12:35 PM,80.6,37.4,21,30.27,10.0,ESE,8.1,19.6,N/A,,Clear,120,2013-08-20 19:35:00
12:55 PM,82.4,35.6,19,30.26,10.0,ESE,9.2,19.6,N/A,,Clear,110,2013-08-20 19:55:00
1:15 PM,82.4,35.6,19,30.25,10.0,SE,13.8,19.6,N/A,,Clear,140,2013-08-20 20:15:00
1:35 PM,82.4,35.6,19,30.25,10.0,East,12.7,18.4,N/A,,Clear,100,2013-08-20 20:35:00
1:55 PM,82.4,33.8,17,30.24,10.0,ESE,11.5,17.3,N/A,,Clear,120,2013-08-20 20:55:00
2:15 PM,84.2,32.0,15,30.23,10.0,East,5.8,23.0,N/A,,Clear,100,2013-08-20 21:15:00
2:35 PM,84.2,33.8,16,30.22,10.0,ESE,9.2,16.1,N/A,,Clear,120,2013-08-20 21:35:00
2:55 PM,84.2,32.0,15,30.22,10.0,SE,10.4,16.1,N/A,,Clear,130,2013-08-20 21:55:00
3:15 PM,80.6,33.8,18,30.21,10.0,SE,8.1,-,N/A,,Scattered Clouds,140,2013-08-20 22:15:00
3:35 PM,78.8,35.6,21,30.20,10.0,SSE,9.2,-,N/A,Rain,Light Rain,150,2013-08-20 22:35:00
3:55 PM,77.0,33.8,21,30.21,10.0,Calm,Calm,-,N/A,,Mostly Cloudy,0,2013-08-20 22:55:00
4:15 PM,75.2,37.4,25,30.23,10.0,WSW,21.9,25.3,N/A,,Overcast,240,2013-08-20 23:15:00
4:35 PM,69.8,39.2,33,30.27,10.0,SSW,24.2,36.8,N/A,,Light Drizzle,200,2013-08-20 23:35:00
4:55 PM,60.8,48.2,63,30.29,4.0,WSW,19.6,35.7,0.06,Rain,Rain,240,2013-08-20 23:55:00
5:15 PM,60.8,46.4,59,30.31,10.0,SW,18.4,36.8,N/A,Rain,Light Rain,220,2013-08-21 00:15:00
5:35 PM,60.8,46.4,59,30.29,10.0,West,17.3,26.5,0.01,Rain,Light Rain,280,2013-08-21 00:35:00
5:55 PM,57.2,51.8,82,30.27,10.0,West,13.8,21.9,0.01,Rain,Light Rain,270,2013-08-21 00:55:00
6:15 PM,59.0,48.2,67,30.30,10.0,West,6.9,16.1,N/A,Rain,Light Rain,260,2013-08-21 01:15:00
6:35 PM,59.0,48.2,67,30.31,10.0,West,3.5,20.7,0.01,Rain,Light Rain,280,2013-08-21 01:35:00
6:55 PM,57.2,50.0,77,30.30,7.0,SSW,3.5,-,0.02,Rain,Light Rain,210,2013-08-21 01:55:00
7:15 PM,60.8,46.4,59,30.28,10.0,Calm,Calm,-,N/A,Rain,Light Rain,0,2013-08-21 02:15:00
7:35 PM,59.0,50.0,72,30.29,10.0,West,4.6,-,N/A,,Overcast,260,2013-08-21 02:35:00
7:55 PM,57.2,51.8,82,30.29,10.0,WNW,3.5,19.6,N/A,,Scattered Clouds,300,2013-08-21 02:55:00
8:15 PM,57.2,51.8,82,30.28,10.0,Calm,Calm,-,N/A,,Scattered Clouds,0,2013-08-21 03:15:00
8:35 PM,55.4,51.8,88,30.29,10.0,Calm,Calm,-,N/A,,Mostly Cloudy,0,2013-08-21 03:35:00
8:55 PM,55.4,50.0,82,30.28,10.0,Calm,Calm,-,N/A,,Scattered Clouds,0,2013-08-21 03:55:00
9:15 PM,53.6,50.0,88,30.29,10.0,NW,4.6,-,N/A,,Scattered Clouds,320,2013-08-21 04:15:00
9:35 PM,53.6,50.0,88,30.29,10.0,Calm,Calm,-,N/A,,Clear,0,2013-08-21 04:35:00
9:55 PM,51.8,50.0,94,30.29,10.0,Calm,Calm,-,N/A,,Clear,0,2013-08-21 04:55:00
10:15 PM,51.8,48.2,88,30.29,10.0,WNW,3.5,-,N/A,,Clear,290,2013-08-21 05:15:00
10:35 PM,51.8,48.2,88,30.29,10.0,WNW,4.6,-,N/A,,Clear,290,2013-08-21 05:35:00
10:55 PM,51.8,48.2,88,30.29,10.0,Calm,Calm,-,N/A,,Clear,0,2013-08-21 05:55:00
11:15 PM,51.8,46.4,82,30.30,10.0,Calm,Calm,-,N/A,,Clear,0,2013-08-21 06:15:00
11:35 PM,53.6,46.4,77,30.30,10.0,WNW,3.5,-,N/A,,Clear,290,2013-08-21 06:35:00
11:55 PM,51.8,46.4,82,30.31,10.0,Calm,Calm,-,N/A,,Scattered Clouds,0,2013-08-21 06:55:00